User: anonymous   Login
Location: Fishcreek Rd Observing Site
(41.1865°N, 81.4271°W)
Time: 22:32:07
(UTC-04:00)
Language:

Iridium 45 - Orbit

View from above orbital plane
View from above orbital plane
View from above satellite
View from above satellite

Ground track
Ground track

The orbit data is extracted from the following two-line orbital elements,

1 25104U 97082A   17119.92157970 -.00000030 +00000-0 -17775-4 0  9993
2 25104 086.3918 307.4081 0003059 091.1802 268.9744 14.34216742013198
Epoch (UTC): 29 April 2017 22:07:04
Eccentricity: 0.0003059
inclination: 86.3918°
perigee height: 775 km
apogee height: 780 km
right ascension of ascending node: 307.4081°
argument of perigee: 91.1802°
revolutions per day: 14.34216742
mean anomaly at epoch: 268.9744°
orbit number at epoch: 1319

The dashed part of the orbit path shows where the satellite is in the earth's shadow,  

DLR